FW5429 Weather Reports


time (UTC)temp
C
wind
direction
speed
KPH
gust
KPH
rain 1hr
cm
rain 24hr
cm
rain mn
cm
humidity
%
barometer
mb
20260508020512 8 0 0.0 3.2 0.00 0.03 0.00 53 1006.9
20260508020028 8 0 0.0 1.6 0.00 0.03 0.00 53 1006.8
20260508015511 8 0 0.0 1.6 0.00 0.03 0.00 58 1006.7
20260508015011 8 0 0.0 3.2 0.00 0.03 0.00 60 1006.4
20260508014526 9 0 0.0 3.2 0.00 0.03 0.00 59 1006.5
20260508014010 9 0 0.0 0.0 0.00 0.03 0.00 57 1006.1
20260508013508 9 0 0.0 0.0 0.00 0.03 0.00 55 1006.2
20260508013027 9 0 0.0 0.0 0.00 0.03 0.00 55 1006.1
20260508012510 9 0 0.0 0.0 0.00 0.03 0.00 54 1006.0
20260508012010 9 0 0.0 0.0 0.00 0.03 0.00 54 1005.9
20260508011527 10 0 0.0 0.0 0.00 0.03 0.00 54 1005.8
20260508011011 10 0 0.0 0.0 0.00 0.03 0.00 53 1005.8
20260508010512 10 0 0.0 0.0 0.00 0.03 0.00 53 1005.7
20260508010031 10 0 0.0 0.0 0.00 0.03 0.00 52 1005.8
20260508005511 10 0 0.0 0.0 0.00 0.05 0.00 51 1005.7
20260508005010 10 0 0.0 0.0 0.00 0.05 0.00 50 1005.7
20260508004532 11 0 0.0 0.0 0.00 0.05 0.00 48 1005.6
20260508003511 11 0 0.0 0.0 0.00 0.05 0.00 45 1005.5
20260508003027 11 0 0.0 0.0 0.00 0.05 0.00 43 1005.6
20260508002508 12 0 0.0 1.6 0.00 0.05 0.00 42 1005.4
20260508002011 12 0 0.0 3.2 0.00 0.05 0.00 42 1005.3
20260508001527 12 0 0.0 3.2 0.00 0.05 0.00 40 1005.2
20260508001010 12 0 0.0 3.2 0.00 0.05 0.00 39 1005.2
20260508000514 13 0 0.0 1.6 0.00 0.05 0.00 39 1005.1
20260508000031 13 0 0.0 3.2 0.00 0.05 0.00 38 1005.1
20260507235512 13 0 0.0 4.8 0.00 0.05 0.00 36 1005.0
20260507235009 13 242 0.0 4.8 0.00 0.05 0.00 35 1005.0
20260507234542 13 0 0.0 6.4 0.00 0.05 0.00 35 1005.0
20260507234011 13 246 0.0 6.4 0.00 0.05 0.00 34 1005.0
20260507233507 13 12 1.6 4.8 0.00 0.05 0.00 34 1004.9
20260507233028 14 217 0.0 9.7 0.00 0.05 0.00 35 1005.0
20260507232509 14 0 0.0 12.9 0.00 0.05 0.00 34 1005.0
20260507232009 14 184 3.2 12.9 0.00 0.05 0.00 32 1004.9
20260507231527 14 220 3.2 12.9 0.00 0.05 0.00 33 1004.9
20260507231011 15 0 1.6 4.8 0.00 0.05 0.00 34 1004.9
20260507230510 15 0 0.0 9.7 0.00 0.05 0.00 34 1004.7
20260507230030 15 242 1.6 9.7 0.00 0.05 0.00 33 1004.8
20260507225508 15 63 1.6 9.7 0.00 0.10 0.00 33 1004.8
20260507225008 15 42 1.6 9.7 0.00 0.10 0.00 32 1004.7
20260507224529 15 193 3.2 9.7 0.00 0.10 0.00 32 1004.7
20260507224009 15 94 3.2 8.0 0.00 0.10 0.00 32 1004.6
20260507223509 15 205 3.2 8.0 0.00 0.10 0.00 31 1004.4
20260507223029 15 101 1.6 11.3 0.00 0.10 0.00 32 1004.3
20260507222510 16 165 1.6 11.3 0.00 0.10 0.00 30 1004.3
20260507222008 16 249 3.2 9.7 0.00 0.10 0.00 30 1004.2
20260507221533 16 192 3.2 14.5 0.00 0.10 0.00 30 1004.3
20260507221008 16 0 3.2 14.5 0.00 0.10 0.00 30 1004.1
20260507220509 16 246 3.2 16.1 0.00 0.10 0.00 31 1004.1
20260507220034 16 79 3.2 16.1 0.00 0.10 0.00 29 1004.1
20260507215511 17 276 4.8 14.5 0.00 0.36 0.00 29 1004.2
20260507215010 17 246 4.8 14.5 0.00 0.36 0.00 28 1004.4
20260507214527 17 322 1.6 9.7 0.00 0.36 0.00 32 1004.3
20260507214009 17 213 3.2 9.7 0.00 0.36 0.00 30 1004.2
20260507213510 17 252 3.2 9.7 0.00 0.36 0.00 29 1004.2
20260507213032 17 214 1.6 14.5 0.00 0.36 0.00 30 1004.2
20260507212511 17 254 4.8 14.5 0.00 0.36 0.00 31 1004.3
20260507212010 17 34 4.8 17.7 0.00 0.36 0.00 30 1004.3
20260507211533 17 184 3.2 17.7 0.00 0.36 0.00 31 1004.2
20260507211010 17 230 4.8 14.5 0.00 0.36 0.00 30 1004.2
20260507210508 17 89 3.2 14.5 0.00 0.36 0.00 31 1004.2
20260507210031 17 263 3.2 14.5 0.00 0.36 0.00 34 1004.3
20260507205512 17 212 3.2 12.9 0.00 0.58 0.00 30 1004.2
20260507205011 17 220 4.8 20.9 0.00 0.58 0.00 31 1004.2
20260507204528 17 88 3.2 20.9 0.00 0.58 0.00 31 1004.0
20260507204009 17 219 6.4 20.9 0.00 0.58 0.00 30 1003.9
20260507203516 17 50 8.0 20.9 0.00 0.58 0.00 30 1004.0
20260507203027 17 0 1.6 16.1 0.00 0.58 0.00 31 1003.9
20260507202511 17 85 3.2 16.1 0.00 0.58 0.00 32 1004.0
20260507202014 17 196 3.2 16.1 0.00 0.58 0.00 31 1003.9
20260507201526 17 243 3.2 16.1 0.00 0.58 0.00 31 1004.1
20260507201012 17 270 3.2 14.5 0.00 0.58 0.00 31 1004.1
20260507200508 17 136 4.8 14.5 0.00 0.58 0.00 30 1004.0
20260507200027 17 75 3.2 25.7 0.00 0.58 0.00 32 1004.0
20260507195508 17 220 4.8 25.7 0.00 0.79 0.00 30 1004.2
20260507195014 17 119 4.8 19.3 0.00 0.79 0.00 30 1004.2
20260507194535 17 245 6.4 19.3 0.00 0.79 0.00 31 1004.3
20260507194009 17 215 3.2 22.5 0.00 0.79 0.00 32 1004.2
20260507193511 17 46 3.2 24.1 0.00 0.79 0.00 31 1004.2
20260507193025 17 150 6.4 24.1 0.00 0.79 0.00 30 1004.3
20260507192507 17 201 3.2 12.9 0.00 0.79 0.00 33 1004.1
20260507192010 17 247 3.2 12.9 0.00 0.79 0.00 32 1004.4
20260507191528 17 48 3.2 14.5 0.00 0.79 0.00 31 1004.5
20260507191018 17 74 4.8 20.9 0.00 0.79 0.00 31 1004.4
20260507190511 17 327 6.4 20.9 0.00 0.79 0.00 32 1004.5
20260507190040 17 159 6.4 20.9 0.00 0.79 0.00 31 1004.4
20260507185514 17 225 3.2 17.7 0.00 0.81 0.00 33 1004.4
20260507185013 17 220 3.2 14.5 0.00 0.81 0.00 33 1004.3
20260507184535 17 204 4.8 14.5 0.00 0.81 0.00 34 1004.4
20260507184010 17 219 4.8 12.9 0.00 0.81 0.00 35 1004.3
20260507183510 17 215 3.2 12.9 0.00 0.81 0.00 35 1004.4
20260507183029 17 84 4.8 12.9 0.00 0.81 0.00 35 1004.4
20260507182013 17 209 6.4 20.9 0.00 0.81 0.00 35 1004.6
20260507181528 17 234 4.8 14.5 0.00 0.81 0.00 39 1004.5
20260507181011 17 232 1.6 14.5 0.00 0.81 0.00 38 1004.4
20260507180509 17 200 3.2 25.7 0.00 0.81 0.00 41 1004.4
20260507180026 17 273 3.2 25.7 0.00 0.81 0.00 41 1004.4
20260507175508 17 210 4.8 25.7 0.00 0.81 0.00 42 1004.5
20260507175009 16 65 3.2 16.1 0.00 0.81 0.00 45 1004.5
20260507174533 16 103 3.2 16.1 0.00 0.81 0.00 47 1004.6
20260507174011 16 231 4.8 20.9 0.00 0.81 0.00 47 1004.6
20260507173513 16 306 6.4 20.9 0.00 0.81 0.00 49 1004.6
20260507173041 16 196 4.8 12.9 0.00 0.81 0.00 47 1004.7
20260507172511 16 104 3.2 12.9 0.00 0.81 0.00 46 1004.6
20260507172013 16 54 4.8 12.9 0.00 0.81 0.00 49 1004.7
20260507171526 16 217 3.2 19.3 0.00 0.81 0.00 45 1004.7
20260507171007 16 112 3.2 19.3 0.00 0.81 0.00 47 1004.8
20260507170026 16 209 3.2 14.5 0.00 0.81 0.00 47 1004.8
20260507165508 16 319 6.4 14.5 0.00 0.81 0.00 46 1004.8
20260507165008 16 255 1.6 16.1 0.00 0.81 0.00 49 1004.9
20260507164535 16 208 6.4 16.1 0.00 0.81 0.00 46 1004.9
20260507164011 16 261 3.2 12.9 0.00 0.81 0.00 46 1004.9
20260507163509 16 196 3.2 12.9 0.00 0.81 0.00 49 1005.0
20260507163026 16 217 4.8 12.9 0.00 0.81 0.00 49 1005.1
20260507162511 16 188 4.8 14.5 0.00 0.81 0.00 51 1005.1
20260507162013 15 219 1.6 14.5 0.00 0.81 0.00 51 1005.0
20260507161533 15 225 3.2 12.9 0.00 0.81 0.00 49 1005.1
20260507161011 15 38 1.6 12.9 0.00 0.81 0.00 52 1005.1
20260507160512 15 98 3.2 19.3 0.00 0.81 0.00 49 1005.2
20260507160029 16 214 4.8 19.3 0.00 0.81 0.00 49 1005.3
20260507155009 16 214 6.4 17.7 0.00 0.81 0.00 49 1005.6
20260507154526 15 81 4.8 17.7 0.00 0.81 0.00 49 1005.6
20260507154010 16 173 1.6 12.9 0.00 0.81 0.00 49 1005.5
20260507153507 16 331 3.2 14.5 0.00 0.81 0.00 46 1005.7
20260507153034 16 246 4.8 14.5 0.00 0.81 0.00 45 1005.6
20260507152515 16 109 3.2 12.9 0.00 0.81 0.00 47 1005.7
20260507152012 16 205 3.2 12.9 0.00 0.81 0.00 51 1005.8
20260507151531 16 207 3.2 16.1 0.00 0.81 0.00 52 1005.7
20260507151011 16 184 3.2 16.1 0.00 0.81 0.00 50 1005.8
20260507150511 15 223 1.6 12.9 0.00 0.81 0.00 51 1005.7
20260507150032 16 170 3.2 12.9 0.00 0.81 0.00 49 1005.8
20260507145512 16 292 1.6 9.7 0.00 0.81 0.00 49 1005.6
20260507145011 16 0 3.2 20.9 0.00 0.81 0.00 50 1005.7
20260507144534 15 80 3.2 20.9 0.00 0.81 0.00 50 1005.8
20260507144010 15 240 4.8 14.5 0.00 0.81 0.00 48 1005.8
20260507143510 15 271 3.2 9.7 0.00 0.81 0.00 50 1005.7
20260507143028 15 15 1.6 14.5 0.00 0.81 0.00 51 1005.7
20260507142508 15 219 3.2 14.5 0.00 0.81 0.00 50 1005.8
20260507142013 15 295 4.8 14.5 0.00 0.81 0.00 52 1005.8
20260507141526 15 132 1.6 11.3 0.00 0.81 0.00 53 1005.8
20260507141015 15 211 1.6 8.0 0.00 0.81 0.00 55 1005.8
20260507140509 14 109 1.6 8.0 0.00 0.81 0.00 58 1005.9
20260507140027 13 194 1.6 12.9 0.00 0.81 0.00 60 1006.1
20260507135509 13 203 3.2 12.9 0.00 0.81 0.00 56 1006.1
20260507135008 13 250 3.2 12.9 0.00 0.81 0.00 58 1006.1
20260507134527 14 219 3.2 8.0 0.00 0.81 0.00 59 1006.1
20260507134008 14 233 3.2 9.7 0.00 0.81 0.00 60 1006.4
20260507133508 14 238 1.6 9.7 0.00 0.81 0.00 62 1006.4
20260507133028 13 185 3.2 11.3 0.00 0.81 0.00 62 1006.3
20260507132510 13 24 3.2 11.3 0.00 0.81 0.00 61 1006.4
20260507132009 13 0 1.6 8.0 0.00 0.81 0.00 61 1006.4
20260507131527 13 0 1.6 8.0 0.00 0.81 0.00 63 1006.5
20260507131013 13 222 3.2 8.0 0.00 0.81 0.00 67 1006.6
20260507130510 12 109 1.6 8.0 0.00 0.81 0.00 69 1006.5
20260507130031 12 202 4.8 8.0 0.00 0.81 0.00 67 1006.6
20260507125612 12 131 1.6 11.3 0.00 0.81 0.00 68 1006.6
20260507125016 12 331 3.2 11.3 0.00 0.81 0.00 70 1006.6
20260507124536 12 219 4.8 9.7 0.00 0.81 0.00 68 1006.6
20260507124013 12 38 3.2 9.7 0.00 0.81 0.00 70 1006.5
20260507123510 12 49 1.6 8.0 0.00 0.81 0.00 69 1006.6
20260507123028 12 57 1.6 8.0 0.00 0.81 0.00 70 1006.7
20260507122508 12 184 1.6 8.0 0.00 0.81 0.00 69 1006.6
20260507122011 12 127 1.6 8.0 0.00 0.81 0.00 70 1006.7
20260507121526 12 65 1.6 11.3 0.00 0.81 0.00 70 1006.8
20260507121009 12 94 0.0 11.3 0.00 0.81 0.00 74 1006.7
20260507120511 11 198 1.6 6.4 0.00 0.81 0.00 75 1006.7
20260507120027 11 80 1.6 6.4 0.00 0.81 0.00 79 1006.7
20260507115511 11 213 0.0 3.2 0.00 0.81 0.00 83 1006.7
20260507115015 10 0 0.0 6.4 0.00 0.81 0.00 84 1006.7
20260507114544 10 70 1.6 6.4 0.00 0.81 0.00 86 1006.8
20260507114014 9 0 0.0 6.4 0.00 0.81 0.00 88 1006.8
20260507113510 8 242 1.6 6.4 0.00 0.81 0.00 87 1007.0
20260507113053 8 161 0.0 4.8 0.00 0.81 0.00 88 1006.7
20260507112509 8 181 0.0 4.8 0.00 0.81 0.00 89 1006.6
20260507112010 8 46 0.0 4.8 0.00 0.81 0.00 90 1006.6
20260507111537 8 0 0.0 1.6 0.00 0.81 0.00 90 1006.5
20260507111008 8 0 0.0 3.2 0.00 0.81 0.00 90 1006.6
20260507110509 8 0 0.0 3.2 0.00 0.81 0.00 90 1006.7
20260507103027 8 0 0.0 3.2 0.00 0.81 0.00 90 1006.4
20260507101008 8 310 0.0 3.2 0.00 0.81 0.00 91 1006.8
20260507100508 8 0 0.0 1.6 0.00 0.81 0.00 92 1006.8
20260507095507 8 0 0.0 1.6 0.00 0.81 0.00 92 1006.6
20260507095010 8 0 0.0 1.6 0.00 0.81 0.00 92 1006.5
20260507094008 8 0 0.0 1.6 0.00 0.81 0.00 91 1006.8
20260507093508 8 0 0.0 1.6 0.00 0.81 0.00 91 1006.9
20260507091527 8 0 0.0 1.6 0.00 0.81 0.00 90 1006.7
20260507090512 8 0 0.0 1.6 0.00 0.81 0.00 89 1006.0
20260507085508 8 0 0.0 4.8 0.00 0.81 0.00 89 1006.1
20260507084009 9 45 0.0 8.0 0.00 0.81 0.00 87 1005.8
20260507083507 9 0 0.0 8.0 0.00 0.81 0.00 87 1005.5
20260507083028 9 204 1.6 6.4 0.00 0.81 0.00 87 1005.7
20260507082510 9 0 1.6 6.4 0.00 0.81 0.00 87 1006.0
20260507081534 9 261 1.6 4.8 0.00 0.81 0.00 87 1005.9
20260507081008 9 80 0.0 6.4 0.00 0.81 0.00 86 1005.8
20260507080513 9 75 1.6 8.0 0.00 0.81 0.00 86 1005.6
20260507080028 9 176 1.6 8.0 0.00 0.81 0.00 87 1005.6
20260507075508 9 112 1.6 8.0 0.00 0.81 0.00 86 1005.4
20260507075013 9 122 1.6 8.0 0.00 0.81 0.00 86 1005.5
20260507074528 9 123 1.6 9.7 0.00 0.81 0.00 87 1005.5
20260507074009 10 202 0.0 9.7 0.00 0.81 0.00 87 1005.3
20260507073512 10 164 1.6 8.0 0.00 0.81 0.00 88 1005.1
20260507073029 10 0 1.6 4.8 0.00 0.81 0.00 89 1005.4
20260507072510 10 0 0.0 8.0 0.00 0.81 0.00 89 1005.4
20260507072008 10 165 1.6 8.0 0.00 0.81 0.00 88 1005.3
20260507071527 10 178 0.0 11.3 0.00 0.81 0.00 89 1005.5
20260507071009 10 319 3.2 11.3 0.00 0.81 0.00 89 1005.4
20260507070511 10 243 0.0 6.4 0.00 0.81 0.00 89 1005.2
20260507070028 10 0 1.6 6.4 0.00 0.81 0.00 89 1004.7
20260507065512 10 0 0.0 6.4 0.00 0.81 0.00 88 1004.8
20260507065012 10 296 1.6 12.9 0.00 0.81 0.00 89 1004.9
20260507064526 10 217 3.2 12.9 0.00 0.81 0.00 88 1004.9
20260507064011 10 303 3.2 9.7 0.00 0.81 0.00 89 1004.6
20260507063514 10 270 1.6 9.7 0.00 0.81 0.00 89 1004.8
20260507063028 10 194 0.0 8.0 0.00 0.81 0.00 90 1005.1
20260507062511 10 221 1.6 4.8 0.00 0.81 0.00 90 1005.2
20260507062010 10 251 1.6 4.8 0.00 0.81 0.00 90 1005.1
20260507061529 10 0 0.0 6.4 0.00 0.81 0.00 90 1005.0
20260507061009 10 0 0.0 8.0 0.00 0.81 0.00 90 1004.8
20260507060510 10 255 3.2 8.0 0.00 0.81 0.00 89 1004.7
20260507060026 10 109 1.6 6.4 0.00 0.81 0.00 89 1004.7
20260507055512 10 69 0.0 6.4 0.00 0.81 0.00 90 1004.7
20260507055011 10 213 1.6 8.0 0.00 0.81 0.00 90 1004.5
20260507054528 10 257 3.2 8.0 0.00 0.81 0.00 90 1004.8
20260507054011 10 313 3.2 8.0 0.00 0.81 0.00 90 1004.8
20260507053511 11 229 1.6 6.4 0.00 0.81 0.00 90 1004.6
20260507053028 11 228 1.6 4.8 0.00 0.81 0.00 90 1004.3
20260507052511 11 277 1.6 9.7 0.00 0.81 0.00 90 1004.3
20260507052010 11 344 0.0 9.7 0.00 0.81 0.00 90 1004.6
20260507051528 11 0 1.6 9.7 0.00 0.81 0.00 90 1004.6
20260507051010 11 255 1.6 8.0 0.00 0.81 0.00 91 1004.7
20260507050508 11 0 0.0 8.0 0.00 0.81 0.00 91 1004.5
20260507050030 11 0 1.6 8.0 0.00 0.81 0.00 91 1004.5
20260507045509 11 269 1.6 9.7 0.00 0.81 0.00 91 1004.4
20260507045012 11 192 3.2 9.7 0.00 0.81 0.00 91 1004.3
20260507044528 11 121 1.6 6.4 0.00 0.81 0.00 91 1004.4
20260507044011 11 242 0.0 6.4 0.00 0.81 0.00 91 1004.5
20260507043511 11 278 1.6 8.0 0.00 0.81 0.00 92 1004.4
20260507043029 11 229 1.6 8.0 0.00 0.81 0.00 92 1004.3
20260507042512 11 275 1.6 11.3 0.00 0.81 0.00 92 1004.2
20260507042010 12 256 0.0 11.3 0.03 0.81 0.00 92 1004.2
20260507041528 12 360 3.2 11.3 0.03 0.81 0.00 92 1004.2
20260507041010 12 82 3.2 9.7 0.03 0.81 0.00 93 1004.0
20260507040510 12 217 0.0 3.2 0.03 0.81 0.00 94 1004.0
20260507040026 12 0 0.0 9.7 0.03 0.81 0.00 94 1004.1
20260507035512 12 65 1.6 11.3 0.03 0.81 0.81 94 1003.9
20260507035014 12 0 3.2 11.3 0.03 0.81 0.81 95 1004.1
20260507034534 12 244 1.6 16.1 0.03 0.81 0.81 96 1004.0
20260507034009 12 236 3.2 16.1 0.03 0.81 0.81 96 1004.4
20260507033511 12 234 3.2 16.1 0.03 0.81 0.81 97 1004.2
20260507033026 12 195 3.2 12.9 0.03 0.81 0.81 96 1004.2
20260507032516 11 214 0.0 3.2 0.03 0.81 0.81 96 1004.1
20260507032015 11 0 0.0 3.2 0.00 0.79 0.79 96 1003.9
20260507031528 11 0 0.0 3.2 0.00 0.79 0.79 95 1003.8
20260507031009 11 205 0.0 3.2 0.00 0.79 0.79 96 1003.7
20260507030517 11 205 0.0 3.2 0.00 0.79 0.79 95 1003.7
20260507030031 11 0 0.0 1.6 0.00 0.79 0.79 95 1003.8
20260507025511 11 0 0.0 1.6 0.00 0.79 0.79 95 1003.6
20260507025011 11 205 0.0 1.6 0.00 0.79 0.79 95 1003.7
20260507024527 11 0 0.0 1.6 0.00 0.79 0.79 95 1003.9
20260507024012 11 0 0.0 1.6 0.00 0.79 0.79 95 1003.8
20260507023511 11 0 0.0 1.6 0.00 0.79 0.79 95 1003.8
20260507023028 11 0 0.0 1.6 0.00 0.79 0.79 95 1003.9
20260507022509 11 0 0.0 1.6 0.00 0.79 0.79 95 1003.9
20260507022012 11 0 0.0 1.6 0.00 0.79 0.79 95 1003.9
20260507021528 11 0 0.0 1.6 0.00 0.79 0.79 95 1004.0
20260507021011 11 0 0.0 4.8 0.00 0.79 0.79 96 1004.0